Flag for United Kingdom Weather past 2 weeks in Winchester, England, United Kingdom

Now
61 °F

Passing clouds.


Feels Like: 61 °F
Forecast: 58 / 71 °F
Wind: 3 mph from Southwest

Location: Middle Wallop

Current Time: Aug 1, 2014 at 1:29:09 AM

Latest Report: Jul 31, 2014 at 11:50 PM


Visibility: N/A

Pressure: 29.89 "Hg

Humidity: 83%

Dew point: 55 °F

Location of WinchesterLocation

Historic Weather in Winchester — Graph

°F

Winchester temperature yesterday

Maximum temperature yesterday: 73 °F (at 2:50 PM)
Minimum temperature yesterday: 54 °F (at 5:50 AM)
Average temperature yesterday: 64 °F

Past Weeks' High & Low Weather Summary

 TemperatureHumidityPressure
High84 °F (Jul 24, 4:50 PM)100% (Jul 19, 4:50 AM)30.21 "Hg (Jul 19, 4:50 AM)
Low52 °F (Jul 30, 5:50 AM)29% (Jul 24, 4:50 PM)29.71 "Hg (Jul 19, 5:50 PM)
Average68 °F65%30.00 "Hg
* Reported Jul 16 11:50 PM — Jul 31 11:50 PM, Winchester, Weather by CustomWeather, © 2014

Note: Actual official high and low records may vary slightly from our data, if they occured in-between our weather recording intervals... More about our weather records

Advertising

Winchester weather history for previous 24 hours

 ConditionsComfort  
Time TempWeatherWind HumidityBarometerVisibility
11:50 PM
Jul 31
61 °FPassing clouds.3 mph83%29.89 "HgN/A
10:50 PM63 °FClear.3 mph77%29.89 "Hg10 mi
9:50 PM64 °FScattered clouds.6 mph73%29.92 "HgN/A
8:50 PM66 °FPassing clouds.7 mph68%29.89 "HgN/A
7:50 PM70 °FScattered clouds.5 mph64%29.89 "HgN/A
6:50 PM70 °FScattered clouds.7 mph64%29.89 "HgN/A
5:50 PM70 °FSprinkles. Scattered clouds.12 mph64%29.92 "HgN/A
4:50 PM72 °FBroken clouds.8 mph53%29.92 "HgN/A
3:50 PM73 °FBroken clouds.8 mph47%29.92 "HgN/A
2:50 PM73 °FBroken clouds.6 mph50%29.92 "HgN/A
1:50 PM72 °FBroken clouds.7 mph53%29.95 "HgN/A
12:50 PM72 °FPartly sunny.7 mph53%29.95 "HgN/A
11:50 AM70 °FBroken clouds.8 mph57%29.95 "HgN/A
10:50 AM68 °FPartly sunny.7 mph56%29.98 "HgN/A
9:50 AM66 °FPartly sunny.8 mph64%29.98 "HgN/A
8:50 AM63 °FPartly sunny.6 mph68%29.98 "HgN/A
7:50 AM59 °FSunny.3 mph82%29.98 "Hg10 mi
6:50 AM54 °FScattered clouds.2 mph94%29.98 "HgN/A
5:50 AM54 °FSleet. Light fog.1 mph94%29.98 "HgN/A
4:50 AM55 °FPassing clouds.1 mph94%29.98 "HgN/A
3:50 AM55 °FClear.2 mph88%30.01 "HgN/A
2:50 AM57 °FClear.6 mph88%30.01 "HgN/A
1:50 AM59 °FClear.6 mph82%30.01 "HgN/A
Weather by CustomWeather, © 2014

See weather overviewHow to use our weather pages